When you browse on this site, cookies collect data to enhance your experience and personalize the content and advertising you see.
Visit our Privacy Policy to learn more. By continuing to use the site, you agree to this use of cookies and data.
  • In Slovakia
  • List of Countries
  • For 7 days
  • Water Temperature
  • Weather Map
  • Weather Widgets
  • user-avatar
    Login

    Hourly Weather Golovachi

    Today, 22 August, Thursday

    Time Temperature Precipitation Wind Pressure Humidity
    00:00 +13°C° 0 mm 5 mps 753 mmHg 88%
    01:00 +13°C° 0 mm 5 mps 753 mmHg 87%
    02:00 +13°C° 0 mm 4 mps 754 mmHg 87%
    03:00 +12°C° 0 mm 4 mps 754 mmHg 89%
    04:00 +12°C° 0 mm 4 mps 754 mmHg 90%
    05:00 +12°C° 0 mm 4 mps 754 mmHg 92%
    06:00 +13°C° 0 mm 4 mps 754 mmHg 90%
    07:00 +14°C° 0 mm 4 mps 755 mmHg 87%
    08:00 +16°C° 0 mm 3 mps 755 mmHg 85%
    09:00 +17°C° 0 mm 3 mps 755 mmHg 79%
    10:00 +19°C° 0 mm 3 mps 755 mmHg 72%
    11:00 +20°C° 0 mm 3 mps 755 mmHg 65%
    12:00 +21°C° 0 mm 3 mps 755 mmHg 63%
    13:00 +21°C° 0 mm 3 mps 755 mmHg 61%
    14:00 +22°C° 0 mm 3 mps 756 mmHg 57%
    15:00 +22°C° 0 mm 3 mps 756 mmHg 59%
    16:00 +21°C° 0 mm 3 mps 755 mmHg 61%
    17:00 +21°C° 0 mm 3 mps 755 mmHg 63%
    18:00 +19°C° 0 mm 2 mps 755 mmHg 68%
    19:00 +18°C° 0 mm 2 mps 755 mmHg 72%
    20:00 +16°C° 0 mm 2 mps 756 mmHg 76%
    21:00 +16°C° 0 mm 2 mps 756 mmHg 76%
    22:00 +15°C° 0 mm 2 mps 756 mmHg 77%
    23:00 +15°C° 0 mm 1 mps 756 mmHg 77%

    Tomorrow, 23 August, Friday

    Time Temperature Precipitation Wind Pressure Humidity
    00:00 +14°C° 0 mm 1 mps 756 mmHg 79%
    01:00 +14°C° 0 mm 1 mps 756 mmHg 80%
    02:00 +13°C° 0 mm 1 mps 756 mmHg 81%
    03:00 +13°C° 0 mm 1 mps 756 mmHg 83%
    04:00 +12°C° 0 mm 1 mps 756 mmHg 85%
    05:00 +12°C° 0 mm 1 mps 756 mmHg 86%
    06:00 +14°C° 0 mm 1 mps 756 mmHg 82%
    07:00 +15°C° 0 mm 1 mps 756 mmHg 77%
    08:00 +18°C° 0 mm 1 mps 757 mmHg 73%
    09:00 +19°C° 0 mm 1 mps 757 mmHg 68%
    10:00 +21°C° 0 mm 1 mps 757 mmHg 62%
    11:00 +22°C° 0 mm 1 mps 757 mmHg 57%
    12:00 +23°C° 0 mm 1 mps 756 mmHg 54%
    13:00 +23°C° 0 mm 1 mps 756 mmHg 51%
    14:00 +24°C° 0 mm 1 mps 756 mmHg 48%
    15:00 +24°C° 0 mm 1 mps 756 mmHg 50%
    16:00 +24°C° 0 mm 1 mps 756 mmHg 51%
    17:00 +23°C° 0 mm 1 mps 755 mmHg 52%
    18:00 +21°C° 0 mm 1 mps 755 mmHg 58%
    19:00 +17°C° 0 mm 0 mps 755 mmHg 63%
    20:00 +15°C° 0 mm 0 mps 755 mmHg 68%
    21:00 +15°C° 0 mm 0 mps 755 mmHg 71%
    22:00 +14°C° 0 mm 0 mps 755 mmHg 73%
    23:00 +13°C° 0 mm 0 mps 755 mmHg 75%

    Day after tomorrow, 24 August, Saturday

    Time Temperature Precipitation Wind Pressure Humidity
    00:00 +13°C° 0 mm 0 mps 755 mmHg 76%
    01:00 +13°C° 0 mm 0 mps 755 mmHg 77%
    02:00 +12°C° 0 mm 0 mps 755 mmHg 79%
    03:00 +12°C° 0 mm 0 mps 755 mmHg 80%
    04:00 +12°C° 0 mm 0 mps 755 mmHg 81%
    05:00 +11°C° 0 mm 0 mps 755 mmHg 82%
    06:00 +13°C° 0 mm 0 mps 755 mmHg 78%
    07:00 +15°C° 0 mm 0 mps 755 mmHg 73%
    08:00 +17°C° 0 mm 0 mps 755 mmHg 69%
    09:00 +18°C° 0 mm 0 mps 755 mmHg 64%
    10:00 +20°C° 0 mm 0 mps 755 mmHg 59%
    11:00 +21°C° 0 mm 0 mps 755 mmHg 54%
    12:00 +22°C° 0 mm 0 mps 755 mmHg 52%
    13:00 +22°C° 0 mm 0 mps 755 mmHg 49%
    14:00 +23°C° 0 mm 0 mps 754 mmHg 47%
    15:00 +25°C° 0 mm 1 mps 754 mmHg 49%
    16:00 +25°C° 0 mm 1 mps 754 mmHg 51%
    17:00 +24°C° 0 mm 1 mps 754 mmHg 53%
    18:00 +22°C° 0 mm 1 mps 754 mmHg 58%
    19:00 +20°C° 0 mm 1 mps 754 mmHg 64%
    20:00 +18°C° 0 mm 1 mps 754 mmHg 70%
    21:00 +16°C° 0 mm 0 mps 754 mmHg 72%
    22:00 +15°C° 0 mm 0 mps 754 mmHg 74%
    23:00 +14°C° 0 mm 0 mps 754 mmHg 77%

    25 August, Sunday

    Time Temperature Precipitation Wind Pressure Humidity
    00:00 +14°C° 0 mm 0 mps 754 mmHg 78%
    01:00 +14°C° 0 mm 0 mps 754 mmHg 80%
    02:00 +13°C° 0 mm 0 mps 754 mmHg 82%
    03:00 +13°C° 0 mm 0 mps 754 mmHg 83%
    04:00 +13°C° 0 mm 0 mps 754 mmHg 84%
    05:00 +13°C° 0 mm 0 mps 754 mmHg 85%
    06:00 +14°C° 0 mm 0 mps 754 mmHg 81%
    07:00 +18°C° 0 mm 1 mps 754 mmHg 77%
    08:00 +20°C° 0 mm 1 mps 754 mmHg 72%
    09:00 +21°C° 0 mm 1 mps 754 mmHg 68%
    10:00 +23°C° 0 mm 1 mps 754 mmHg 64%
    11:00 +24°C° 0 mm 1 mps 754 mmHg 60%
    12:00 +25°C° 0 mm 1 mps 754 mmHg 58%
    13:00 +25°C° 0 mm 1 mps 754 mmHg 56%
    14:00 +26°C° 0 mm 1 mps 754 mmHg 54%
    15:00 +26°C° 0 mm 1 mps 754 mmHg 56%
    16:00 +26°C° 0 mm 1 mps 754 mmHg 58%
    17:00 +26°C° 0 mm 1 mps 753 mmHg 59%
    18:00 +24°C° 0 mm 1 mps 753 mmHg 67%
    19:00 +22°C° 0 mm 1 mps 753 mmHg 74%
    20:00 +20°C° 0 mm 1 mps 754 mmHg 81%
    21:00 +19°C° 0 mm 1 mps 754 mmHg 84%
    22:00 +19°C° 0 mm 1 mps 754 mmHg 87%
    23:00 +18°C° 0 mm 1 mps 754 mmHg 90%

    26 August, Monday

    Time Temperature Precipitation Wind Pressure Humidity
    00:00 +17°C° 0 mm 2 mps 754 mmHg 91%
    01:00 +17°C° 0 mm 2 mps 754 mmHg 92%
    02:00 +16°C° 0 mm 2 mps 754 mmHg 94%
    03:00 +16°C° 0 mm 2 mps 754 mmHg 94%
    04:00 +16°C° 0 mm 2 mps 754 mmHg 94%
    05:00 +16°C° 0 mm 1 mps 754 mmHg 95%
    06:00 +17°C° 0 mm 2 mps 754 mmHg 91%
    07:00 +18°C° 0 mm 2 mps 754 mmHg 87%
    08:00 +19°C° 0 mm 2 mps 754 mmHg 83%
    09:00 +21°C° 0 mm 2 mps 754 mmHg 78%
    10:00 +23°C° 0 mm 2 mps 754 mmHg 73%
    11:00 +25°C° 0 mm 2 mps 754 mmHg 68%
    12:00 +25°C° 0.2 mm 2 mps 754 mmHg 66%
    13:00 +26°C° 0.2 mm 2 mps 754 mmHg 64%
    14:00 +26°C° 0.2 mm 2 mps 753 mmHg 62%
    15:00 +26°C° 0.3 mm 2 mps 753 mmHg 64%
    16:00 +25°C° 0.3 mm 2 mps 753 mmHg 66%
    17:00 +25°C° 0.3 mm 2 mps 752 mmHg 69%
    18:00 +24°C° 0.1 mm 2 mps 752 mmHg 73%
    19:00 +22°C° 0.1 mm 1 mps 752 mmHg 77%
    20:00 +20°C° 0.1 mm 1 mps 752 mmHg 81%
    21:00 +20°C° 0 mm 1 mps 752 mmHg 81%
    22:00 +19°C° 0 mm 1 mps 752 mmHg 81%
    23:00 +19°C° 0 mm 1 mps 753 mmHg 81%

    27 August, Tuesday

    Time Temperature Precipitation Wind Pressure Humidity
    00:00 +18°C° 0 mm 1 mps 752 mmHg 82%
    01:00 +18°C° 0 mm 1 mps 752 mmHg 83%
    02:00 +16°C° 0 mm 1 mps 752 mmHg 84%
    03:00 +16°C° 0 mm 1 mps 752 mmHg 85%
    04:00 +15°C° 0 mm 0 mps 752 mmHg 85%
    05:00 +15°C° 0 mm 0 mps 752 mmHg 86%
    06:00 +16°C° 0 mm 0 mps 752 mmHg 82%
    07:00 +17°C° 0 mm 0 mps 752 mmHg 79%
    08:00 +21°C° 0 mm 1 mps 752 mmHg 75%
    09:00 +22°C° 0 mm 1 mps 752 mmHg 72%
    10:00 +23°C° 0 mm 1 mps 752 mmHg 69%
    11:00 +25°C° 0 mm 1 mps 752 mmHg 66%
    12:00 +25°C° 0 mm 1 mps 752 mmHg 64%
    13:00 +26°C° 0 mm 2 mps 752 mmHg 61%
    14:00 +26°C° 0 mm 2 mps 752 mmHg 59%
    15:00 +26°C° 0 mm 2 mps 752 mmHg 61%
    16:00 +26°C° 0 mm 2 mps 751 mmHg 64%
    17:00 +26°C° 0 mm 2 mps 751 mmHg 66%
    18:00 +24°C° 0 mm 2 mps 751 mmHg 71%
    19:00 +21°C° 0 mm 2 mps 751 mmHg 76%
    20:00 +19°C° 0 mm 2 mps 751 mmHg 81%
    21:00 +19°C° 0 mm 2 mps 752 mmHg 84%
    22:00 +18°C° 0 mm 2 mps 752 mmHg 86%
    23:00 +17°C° 0 mm 2 mps 752 mmHg 89%
    Show more